DW6222 Weather Reports


Display with metric or nautical units.
time (UTC)temp
F
wind
direction
speed
MPH
gust
MPH
rain 1hr
in
rain 24hr
in
rain mn
in
humidity
%
barometer
mb
20260510121545 39 308 6.0 8.0 0.00 0.00 0.00 80 1015.5
20260510120046 39 321 5.0 6.0 0.00 0.00 0.00 80 1015.3
20260510114543 39 350 4.0 9.0 0.00 0.00 0.00 80 1015.2
20260510113043 39 352 7.0 10.0 0.00 0.00 0.00 79 1015.0
20260510111551 40 342 10.0 14.0 0.00 0.00 0.00 78 1014.9
20260510110045 40 346 10.0 14.0 0.00 0.00 0.00 77 1014.7
20260510104604 40 0 0.0 4.0 0.00 0.00 0.00 75 1014.3
20260510103044 39 24 2.0 7.0 0.00 0.00 0.00 76 1014.2
20260510101543 38 80 1.0 3.0 0.00 0.00 0.00 82 1013.8
20260510100040 38 80 0.0 0.0 0.00 0.00 0.00 82 1013.5
20260510094545 38 0 0.0 3.0 0.00 0.00 0.00 82 1013.3
20260510093044 38 0 0.0 3.0 0.00 0.00 0.00 82 1013.2
20260510091543 38 80 2.0 4.0 0.00 0.00 0.00 81 1013.1
20260510090053 38 223 0.0 2.0 0.00 0.00 0.00 81 1013.0
20260510084542 38 11 1.0 4.0 0.00 0.00 0.00 81 1012.9
20260510083039 38 0 1.0 3.0 0.00 0.00 0.00 81 1012.8
20260510081542 39 0 0.0 6.0 0.00 0.00 0.00 79 1012.6
20260510080046 39 282 4.0 7.0 0.00 0.00 0.00 77 1012.5
20260510074543 41 0 1.0 3.0 0.00 0.00 0.00 71 1012.3
20260510073044 41 39 1.0 3.0 0.00 0.00 0.00 71 1012.3
20260510071542 40 11 2.0 4.0 0.00 0.00 0.00 72 1012.3
20260510070043 39 0 0.0 2.0 0.00 0.00 0.00 76 1012.1
20260510064539 39 302 2.0 3.0 0.00 0.00 0.00 75 1012.1
20260510063045 40 298 3.0 6.0 0.00 0.00 0.00 73 1012.2
20260510061543 41 254 4.0 6.0 0.00 0.00 0.00 70 1012.2
20260510060051 41 0 0.0 0.0 0.00 0.00 0.00 68 1012.1
20260510054541 41 0 0.0 1.0 0.00 0.00 0.00 67 1012.2
20260510053041 41 33 0.0 4.0 0.00 0.00 0.00 66 1011.9
20260510051611 41 51 3.0 7.0 0.00 0.00 0.00 68 1011.9
20260510050044 40 30 4.0 8.0 0.00 0.00 0.00 70 1011.9
20260510044544 41 314 8.0 10.0 0.00 0.00 0.00 68 1011.8
20260510043107 41 294 8.0 10.0 0.00 0.00 0.00 68 1011.7
20260510041549 42 298 10.0 12.0 0.00 0.00 0.00 66 1011.7
20260510040051 42 293 8.0 10.0 0.00 0.00 0.00 65 1011.5
20260510034550 42 284 9.0 11.0 0.00 0.00 0.00 63 1011.5
20260510033050 42 284 8.0 9.0 0.00 0.00 0.00 66 1011.2
20260510031613 43 299 8.0 10.0 0.00 0.00 0.00 64 1011.2
20260510030045 43 296 8.0 10.0 0.00 0.00 0.00 66 1011.0
20260510024541 42 313 5.0 8.0 0.00 0.00 0.00 68 1010.9
20260510023053 43 346 3.0 9.0 0.00 0.00 0.00 67 1010.8
20260510021546 44 334 3.0 7.0 0.00 0.00 0.00 65 1010.6
20260510020043 44 296 5.0 9.0 0.00 0.00 0.00 63 1010.5
20260510014544 45 323 7.0 10.0 0.00 0.00 0.00 60 1010.2
20260510013042 46 328 9.0 12.0 0.00 0.00 0.00 53 1009.9
20260510011553 47 335 12.0 16.0 0.00 0.00 0.00 54 1009.8
20260510010101 46 340 8.0 12.0 0.00 0.00 0.00 55 1009.6
20260510004538 46 288 2.0 4.0 0.00 0.00 0.00 56 1009.3
20260510003044 48 0 1.0 4.0 0.00 0.00 0.00 55 1009.1
20260510001543 47 241 3.0 5.0 0.00 0.00 0.00 53 1009.0
20260510000048 47 215 3.0 5.0 0.00 0.00 0.00 59 1008.8
20260509234540 48 240 3.0 4.0 0.00 0.00 0.00 54 1008.7
20260509233037 49 0 1.0 3.0 0.00 0.00 0.00 46 1008.5
20260509231552 49 29 2.0 6.0 0.00 0.00 0.00 46 1008.3
20260509230045 49 74 3.0 5.0 0.00 0.00 0.00 45 1008.1
20260509224542 49 9 2.0 5.0 0.00 0.00 0.00 47 1008.1
20260509223043 49 26 4.0 10.0 0.00 0.00 0.00 46 1008.1
20260509221542 48 0 1.0 5.0 0.00 0.00 0.00 47 1008.0
20260509220044 48 0 0.0 4.0 0.00 0.00 0.00 48 1007.8
20260509214541 47 337 4.0 8.0 0.00 0.00 0.00 48 1007.8
20260509213059 47 0 1.0 9.0 0.00 0.00 0.00 52 1007.7
20260509211608 47 30 6.0 13.0 0.00 0.00 0.00 50 1007.7
20260509210044 47 325 7.0 18.0 0.00 0.00 0.00 50 1007.5
20260509204557 47 340 16.0 21.0 0.00 0.00 0.00 49 1007.6
20260509203049 46 26 11.0 22.0 0.00 0.00 0.00 51 1007.4
20260509201546 46 346 18.0 24.0 0.00 0.00 0.00 49 1007.3
20260509200046 46 342 17.0 20.0 0.00 0.00 0.00 50 1007.0
20260509194546 46 5 14.0 25.0 0.00 0.00 0.00 49 1006.8
20260509193046 46 341 12.0 26.0 0.00 0.00 0.00 50 1006.8
20260509191544 46 326 16.0 25.0 0.00 0.00 0.00 51 1006.7
20260509190049 46 336 18.0 27.0 0.00 0.00 0.00 52 1006.6
20260509184547 45 349 24.0 31.0 0.00 0.00 0.00 52 1006.5
20260509183041 46 340 17.0 29.0 0.00 0.00 0.00 51 1006.0
20260509181545 46 342 25.0 31.0 0.00 0.00 0.00 55 1005.9
20260509180041 46 338 21.0 28.0 0.00 0.00 0.00 56 1005.4
20260509174550 46 334 20.0 27.0 0.00 0.00 0.00 55 1005.3
20260509173044 46 317 18.0 25.0 0.00 0.00 0.00 53 1004.9
20260509171545 46 340 18.0 26.0 0.00 0.00 0.00 54 1004.6
20260509170043 46 327 18.0 28.0 0.00 0.00 0.00 54 1004.4
20260509164543 46 327 18.0 30.0 0.00 0.00 0.00 56 1004.2
20260509163050 46 355 19.0 28.0 0.00 0.00 0.00 55 1003.8
20260509161546 45 338 22.0 29.0 0.00 0.00 0.00 55 1003.7
20260509160045 46 346 24.0 30.0 0.00 0.00 0.00 55 1003.5
20260509154542 46 325 27.0 33.0 0.00 0.00 0.00 53 1003.3
20260509153044 46 339 19.0 28.0 0.00 0.00 0.00 57 1003.0
20260509151541 46 329 19.0 25.0 0.00 0.00 0.00 55 1002.7
20260509150039 46 332 22.0 34.0 0.00 0.00 0.00 52 1002.5
20260509144544 46 306 20.0 35.0 0.00 0.00 0.00 50 1002.4
20260509143050 46 332 21.0 35.0 0.00 0.00 0.00 51 1002.2
20260509141545 45 343 20.0 27.0 0.00 0.00 0.00 53 1002.0
20260509140048 45 325 15.0 20.0 0.00 0.00 0.00 52 1001.7
20260509134550 45 313 12.0 17.0 0.00 0.00 0.00 55 1001.3
20260509133042 45 326 14.0 17.0 0.00 0.00 0.00 54 1001.3
20260509131544 45 311 13.0 18.0 0.00 0.00 0.00 51 1001.2
20260509130045 45 310 13.0 21.0 0.00 0.00 0.00 51 1001.2
20260509124545 45 309 13.0 16.0 0.00 0.00 0.00 53 1001.0
20260509123043 45 322 12.0 17.0 0.00 0.00 0.00 53 1000.8